EDT,Max TemperatureF,Mean TemperatureF,Min TemperatureF,Max Dew PointF,MeanDew PointF,Min DewpointF,Max Humidity, Mean Humidity, Min Humidity, Max Sea Level PressureIn, Mean Sea Level PressureIn, Min Sea Level PressureIn, Max VisibilityMiles, Mean VisibilityMiles, Min VisibilityMiles, Max Wind SpeedMPH, Mean Wind SpeedMPH, Max Gust SpeedMPH,PrecipitationIn, CloudCover, Events, WindDirDegrees
2012-3-1,77,64,46,61,45,21,94,56,15,29.87,29.79,29.74,10,10,10,18,9,31,0.00,1,,247
2012-3-2,51,46,41,52,44,32,100,88,61,30.04,29.92,29.76,10,7,0,13,4,16,0.00,4,Fog-Rain-Thunderstorm,86
2012-3-3,57,54,50,57,46,28,100,80,38,29.76,29.69,29.58,10,8,0,10,3,26,0.39,6,Fog-Rain-Thunderstorm,291
2012-3-4,51,46,39,43,26,14,93,48,28,29.92,29.76,29.69,10,10,10,15,5,29,0.00,5,Rain-Thunderstorm,310
2012-3-5,50,39,28,30,24,16,93,56,31,30.39,30.07,29.91,10,10,10,21,5,32,0.00,5,,287
2012-3-6,51,37,23,28,21,16,100,58,26,30.69,30.61,30.51,10,10,10,9,1,,0.00,0,,152
2012-3-7,68,49,30,45,36,27,100,65,37,30.65,30.58,30.47,10,10,10,20,5,25,0.00,2,,200
2012-3-8,69,56,44,54,49,43,100,72,38,30.46,30.32,30.15,10,9,1,17,6,25,0.00,4,,207
2012-3-9,60,53,44,59,43,23,100,68,29,30.23,30.16,30.07,10,10,4,16,8,29,0.21,4,Rain,300
2012-3-10,53,44,35,25,21,16,60,40,22,30.53,30.46,30.33,10,10,10,12,6,24,0.00,0,,27
2012-3-11,62,45,28,32,27,23,100,56,22,30.60,30.54,30.45,10,10,10,10,1,16,0.00,0,,168
2012-3-12,68,52,37,50,41,30,93,67,46,30.46,30.39,30.27,10,10,10,16,4,23,0.00,2,,210
2012-3-13,77,67,57,57,52,46,88,67,39,30.25,30.21,30.10,10,10,10,15,7,20,0.00,6,Rain,219
2012-3-14,82,66,51,61,51,37,100,64,21,30.25,30.20,30.15,10,9,0,10,4,17,0.00,1,Fog,272
2012-3-15,80,64,48,55,49,43,100,63,26,30.28,30.24,30.19,10,10,7,16,3,21,0.00,2,Rain-Thunderstorm,241
2012-3-16,77,64,50,55,52,50,100,72,39,30.23,30.19,30.12,10,10,10,8,1,,0.00,4,,244
2012-3-17,77,64,50,66,55,50,100,80,47,30.27,30.22,30.18,10,6,0,9,2,22,0.01,4,Fog,82
2012-3-18,68,60,53,61,58,54,100,91,68,30.35,30.29,30.23,10,8,0,8,2,,0.04,6,Fog-Rain-Thunderstorm,83
2012-3-19,77,62,48,68,55,48,100,86,44,30.29,30.21,30.14,10,5,0,7,1,,0.10,5,Fog-Rain-Thunderstorm,170
2012-3-20,80,70,59,63,59,55,100,74,44,30.26,30.20,30.13,10,9,2,12,3,24,0.29,3,Rain-Thunderstorm,156
2012-3-21,75,64,53,63,58,54,100,81,53,30.33,30.27,30.21,10,8,0,8,2,,0.04,4,Fog-Rain,151
2012-3-22,78,64,51,64,58,52,100,81,44,30.30,30.24,30.15,10,7,0,10,2,16,0.00,5,Fog,224
2012-3-23,82,68,53,64,59,54,100,78,39,30.17,30.11,29.99,10,8,0,14,4,18,0.00,3,Fog,227
2012-3-24,68,64,60,64,63,61,100,98,83,30.01,29.93,29.81,10,9,1,8,2,,0.91,8,Rain-Thunderstorm,121
2012-3-25,60,56,53,59,55,54,100,98,88,29.82,29.77,29.73,10,9,2,9,3,,0.12,8,Rain-Thunderstorm,350
2012-3-26,73,63,53,57,50,39,100,71,29,29.96,29.89,29.82,10,10,5,15,6,25,0.00,3,Rain,330
2012-3-27,59,47,35,27,22,16,70,40,22,30.38,30.29,30.16,10,10,10,13,5,17,0.00,0,,35
2012-3-28,77,60,44,55,44,30,81,63,44,30.26,30.11,29.87,10,10,10,20,9,29,0.00,0,,221
2012-3-29,78,68,57,55,43,27,88,47,15,29.92,29.88,29.83,10,10,10,15,6,26,0.00,0,,287
2012-3-30,71,56,42,50,46,39,100,68,43,30.08,30.02,29.91,10,10,7,10,5,16,0.00,2,,84
2012-3-31,73,66,59,64,60,55,100,90,53,29.87,29.81,29.72,10,8,4,12,4,,0.20,7,Rain,245